Location: Fornova de Taro
(44.7000°N, 10.1000°E)
Time: 04:32:40
(UTC+00:00)

Cosmos 292 Rocket - Pass Details

Date: 26 September 2022
Orbit: 673 x 692 km, 74.0° (Epoch: 27 November)

Event Time Altitude Azimuth Distance (km) Brightness Sun altitude
Exits shadow 03:39:06 16° 306° (NW) 1,790 5.6 -17.0°
Maximum altitude 03:39:15 16° 308° (NW) 1,789 5.6 -17.0°
Drops below altitude 10° 03:42:12 10° 346° (NNW) 2,156 6.3 -16.5°
Sets 03:45:26 0° 8° (N) 3,076 7.4 -15.9°
